Weather History for KOMK - May, 2013

Change the Weather History Date:

Tuesday, May 28, 2013

  Actual Average Record
Temperature  
Mean Temperature 59 °F 62 °F  
Max Temperature 67 °F 75 °F 98 °F (1934)
Min Temperature 51 °F 48 °F 32 °F (1977)
Degree Days  
Heating Degree Days 6 4  
Month to date heating degree days 182 221  
Since 1 July heating degree days 5995 6260  
Cooling Degree Days 0 1  
Month to date cooling degree days 23 18  
Year to date cooling degree days 23 19  
Growing Degree Days 8 (Base 50)    
Moisture  
Dew Point 48 °F    
Average Humidity 72    
Maximum Humidity 96    
Minimum Humidity 48    
Precipitation  
Precipitation 0.07 in 0.05 in 0.97 in (1948)
Month to date precipitation 1.47 1.16  
Year to date precipitation 3.99 6.37  
Sea Level Pressure  
Sea Level Pressure 29.78 in    
Wind  
Wind Speed 6 mph (South)    
Max Wind Speed 17 mph    
Max Gust Speed 22 mph    
Visibility 10 miles    
Events Rain    
T = Trace of Precipitation, MM = Missing Value Source: NWS Daily Summary

Daily Weather History Graph

Daily Weather History Graph

Search for Another Location

Airport or City:

Trip Planner

Search our weather history database for the weather conditions in past years. The results will help you decide how hot, cold, wet, or windy it might be!

Date:

Astronomy

May. 28, 2013 Rise Set
Actual Time 5:03 AM PDT 8:47 PM PDT
Civil Twilight 4:23 AM PDT 9:27 PM PDT
Nautical Twilight 3:29 AM PDT 10:22 PM PDT
Astronomical Twilight 2:11 AM PDT 11:42 PM PDT
Moon No Moon Rise 9:06 AM PDT (5/28)
Length of Visible Light 17h 04m
Length of Day
15h 44m
Waning Gibbous, 82% of the Moon is Illuminated
May 28
Waning Gibbous
May 31
Last Quarter
Jun 8
New
Jun 16
First Quarter
Jun 23
Full

Hourly Weather History & Observations

Time (PDT) Temp. Dew Point Humidity Pressure Visibility Wind Dir Wind Speed Gust Speed Precip Events Conditions
12:53 AM 51.1 °F 48.9 °F 92% 29.78 in 10.0 mi Calm Calm - N/A   Overcast
1:19 AM 51.8 °F 50.0 °F 94% 29.78 in 10.0 mi Calm Calm - 0.01 in   Overcast
1:49 AM 51.8 °F 50.0 °F 94% 29.79 in 10.0 mi Calm Calm - 0.01 in   Overcast
1:53 AM 52.0 °F 50.0 °F 93% 29.78 in 10.0 mi Calm Calm - 0.01 in   Overcast
2:03 AM 51.8 °F 50.0 °F 94% 29.79 in 10.0 mi Calm Calm - N/A   Overcast
2:22 AM 51.8 °F 50.0 °F 94% 29.79 in 10.0 mi Calm Calm - N/A   Overcast
2:53 AM 52.0 °F 48.9 °F 89% 29.78 in 10.0 mi Calm Calm - N/A   Overcast
3:53 AM 52.0 °F 48.9 °F 89% 29.79 in 10.0 mi Calm Calm - N/A   Overcast
4:53 AM 52.0 °F 48.9 °F 89% 29.80 in 10.0 mi Calm Calm - N/A   Overcast
5:53 AM 52.0 °F 50.0 °F 93% 29.80 in 10.0 mi Calm Calm - N/A   Overcast
6:53 AM 53.1 °F 50.0 °F 89% 29.81 in 10.0 mi SSE 3.5 mph - N/A   Overcast
7:53 AM 53.1 °F 48.9 °F 86% 29.82 in 10.0 mi SE 3.5 mph - N/A   Overcast
8:53 AM 55.0 °F 48.9 °F 80% 29.82 in 10.0 mi South 3.5 mph - N/A   Overcast
9:31 AM 55.4 °F 50.0 °F 82% 29.82 in 10.0 mi South 5.8 mph - N/A   Overcast
9:44 AM 55.4 °F 48.2 °F 77% 29.81 in 10.0 mi South 3.5 mph - N/A   Overcast
9:53 AM 55.9 °F 48.9 °F 77% 29.82 in 10.0 mi Variable 3.5 mph - N/A   Overcast
10:53 AM 59.0 °F 48.0 °F 67% 29.82 in 10.0 mi SSE 5.8 mph - N/A   Overcast
11:53 AM 61.0 °F 48.0 °F 62% 29.81 in 10.0 mi South 5.8 mph - N/A   Overcast
12:53 PM 63.0 °F 46.9 °F 56% 29.80 in 10.0 mi South 6.9 mph - N/A   Scattered Clouds
1:53 PM 66.9 °F 46.9 °F 49% 29.78 in 10.0 mi SSW 5.8 mph - N/A   Partly Cloudy
2:53 PM 62.1 °F 50.0 °F 65% 29.78 in 8.0 mi South 5.8 mph - 0.03 in Rain Rain
3:53 PM 64.0 °F 50.0 °F 60% 29.76 in 10.0 mi West 4.6 mph - 0.02 in   Mostly Cloudy
4:53 PM 64.9 °F 46.9 °F 52% 29.75 in 10.0 mi SSE 13.8 mph - N/A   Overcast
5:53 PM 64.0 °F 46.0 °F 52% 29.74 in 10.0 mi SSE 12.7 mph - 0.01 in   Mostly Cloudy
6:53 PM 64.9 °F 46.0 °F 50% 29.73 in 10.0 mi SSE 15.0 mph 21.9 mph 0.00 in   Mostly Cloudy
7:53 PM 63.0 °F 46.0 °F 54% 29.72 in 10.0 mi SSE 10.4 mph - N/A   Partly Cloudy
8:53 PM 60.1 °F 46.0 °F 60% 29.72 in 10.0 mi South 4.6 mph - N/A   Mostly Cloudy
9:53 PM 55.9 °F 43.0 °F 62% 29.74 in 10.0 mi WNW 8.1 mph - N/A   Mostly Cloudy
10:53 PM 55.0 °F 43.0 °F 64% 29.73 in 10.0 mi WNW 9.2 mph - N/A   Overcast
11:53 PM 53.1 °F 43.0 °F 69% 29.72 in 10.0 mi WNW 8.1 mph - N/A   Overcast